Voinjama Airport

Jump to: basic info | weather | comments

Related pages: nearby airports | nearby navaids | notams | map

Basic information (top)

Codes: VOI GLVA
Location: lon 8.400000, lat -9.767000, elev 1,400 ft / 427 m msl
Status: small_airport
Scheduled airline service: no
Links: Wikipedia Mobile

Weather (top)

Current conditions for Man Airport 146nm (271km) ESE (rec'd 2013/11/21 04:00Z):

DIMN 210400Z NOL

Airport forecast for Lungi International Airport 204nm (378km) W (rec'd 2014/07/22 00:00Z):

TAF GFLL 222200Z 2300/2406 17009KT 9999 BKN012 PROB30 2304/2306 14008KT 7000 TSRA BKN010 FEW027CB 
      BECMG 2307/2309 14006KT 9999 RA 
      TEMPO 2310/2318 24008KT 9999 BKN013 FEW027CB

Latest comments (top)

No comments yet for Voinjama Airport

More... (top)

See also NOTAMs and nearby airports and navaids, or visit the Voinjama Airport page at the main OurAirports website..